Visibility
15.0 15.0 15.0 15.0 15.0 15.0 15.0 15.0 15.0 15.0 15.0 15.0 15.0 15.0 15.0 15.0 15.0 15.0 15.0 15.0 15.0 15.0 15.0 15.0 15.0 15.0 15.0 15.0 15.0 15.0 15.0 15.0 15.0 15.0 15.0 15.0 15.0 15.0 15.0 15.0 15.0 15.0 15.0 15.0
15.0 15.0 15.0 15.0 15.0 15.0 15.0 15.0 15.0 15.0 15.0 15.0 15.0 15.0 15.0 15.0 15.0 15.0 15.0 15.0 15.0 15.0 15.0 15.0 15.0 15.0 15.0 15.0 15.0 15.0 15.0 15.0 15.0 15.0 15.0 15.0 15.0 15.0 15.0 15.0 15.0 15.0 15.0 15.0
15.0 15.0 15.0 15.0 15.0 15.0 15.0 15.0 15.0 15.0 15.0 15.0 15.0 15.0 15.0 15.0 15.0 15.0 15.0 15.0 15.0 15.0 15.0 15.0 15.0 15.0 15.0 15.0 15.0 15.0 15.0 15.0 15.0 15.0 15.0 15.0 15.0 15.0 15.0 15.0 15.0 15.0 15.0 15.0
15.0 15.0 15.0 15.0 15.0 15.0 7.7 15.0 15.0 15.0 15.0 15.0 15.0 13.1 15.0 15.0 15.0 15.0 15.0 15.0 15.0 15.0 15.0 14.9 15.0 15.0 15.0 15.0 15.0 15.0 15.0 15.0 15.0 15.0 15.0 15.0 15.0 15.0 15.0 15.0 15.0 15.0 15.0 15.0
15.0 15.0 15.0 15.0 15.0 15.0 15.0 15.0 15.0 15.0 15.0 15.0 15.0 7.4 15.0 15.0 15.0 15.0 15.0 15.0 15.0 15.0 15.0 15.0 15.0 15.0 15.0 14.9 15.0 15.0 15.0 15.0 15.0 15.0 15.0 15.0 15.0 15.0 15.0 15.0 15.0 15.0 15.0 15.0
15.0 15.0 15.0 15.0 15.0 15.0 15.0 15.0 15.0 15.0 10.6 0.3 15.0 15.0 15.0 15.0 15.0 15.0 15.0 15.0 15.0 15.0 15.0 15.0 15.0 15.0 15.0 15.0 15.0 15.0 15.0 15.0 15.0 15.0 15.0 15.0 15.0 15.0 15.0 15.0 15.0 15.0 15.0 15.0
15.0 15.0 15.0 15.0 15.0 15.0 10.3 1.1 1.5 9.5 0.3 8.2 15.0 15.0 15.0 15.0 15.0 15.0 15.0 15.0 15.0 15.0 15.0 15.0 15.0 15.0 15.0 15.0 15.0 15.0 15.0 15.0 15.0 15.0 15.0 15.0 15.0 15.0 15.0 15.0 15.0 15.0 8.7 15.0
15.0 15.0 15.0 14.3 15.0 12.6 15.0 0.1 0.3 1.5 15.0 15.0 15.0 0.1 15.0 15.0 15.0 15.0 15.0 15.0 15.0 15.0 15.0 11.1 15.0 15.0 15.0 15.0 15.0 15.0 15.0 15.0 15.0 15.0 15.0 15.0 15.0 15.0 13.7 15.0 13.4 9.1 4.7 7.0
9.4 15.0 15.0 15.0 15.0 6.6 1.0 0.4 9.1 0.0 14.9 0.1 15.0 15.0 15.0 15.0 15.0 15.0 15.0 15.0 15.0 15.0 15.0 4.8 15.0 15.0 15.0 1.0 15.0 15.0 15.0 15.0 15.0 15.0 15.0 15.0 15.0 15.0 15.0 5.9 9.1 5.7 2.0 3.7
7.4 0.8 15.0 15.0 15.0 15.0 2.6 15.0 0.3 0.0 0.1 2.6 15.0 15.0 15.0 15.0 15.0 15.0 15.0 15.0 15.0 15.0 15.0 15.0 15.0 15.0 15.0 0.9 8.3 13.1 15.0 12.8 15.0 15.0 15.0 15.0 15.0 6.9 3.0 2.9 2.4 2.1 3.4 2.9
10.7 0.6 13.1 15.0 15.0 0.5 0.1 0.0 0.0 0.0 2.9 1.0 0.2 3.3 15.0 10.8 15.0 15.0 15.0 15.0 15.0 15.0 6.7 15.0 6.0 7.4 0.3 0.2 0.2 0.2 0.3 0.2 0.3 15.0 15.0 8.7 5.7 3.6 2.1 4.0 2.9 2.9 5.1 7.8
12.4 0.1 5.2 15.0 15.0 15.0 13.8 1.6 0.7 0.0 2.0 4.8 0.4 11.0 15.0 10.7 0.2 0.1 2.4 15.0 6.2 1.6 0.1 0.1 0.1 0.1 0.2 0.3 1.6 3.2 14.5 6.6 2.5 3.3 2.1 0.2 1.7 2.4 2.7 2.4 2.7 4.4 13.4 15.0
12.7 1.2 1.0 15.0 15.0 9.6 14.9 15.0 1.5 0.1 0.0 0.1 0.0 0.1 12.3 7.3 0.0 0.0 0.0 14.3 0.3 0.1 0.0 0.1 0.1 0.1 0.1 0.7 15.0 6.9 8.8 1.0 4.0 4.5 0.7 0.5 0.1 1.6 2.0 0.9 2.4 15.0 13.8 2.8
0.3 2.9 5.9 1.4 15.0 15.0 1.0 15.0 8.1 0.0 0.0 0.1 0.1 0.0 0.1 0.0 0.0 0.0 0.0 0.0 0.6 0.2 0.2 0.1 0.1 0.2 1.0 15.0 15.0 1.4 0.3 2.5 5.8 3.1 3.0 2.7 2.2 0.6 0.3 2.2 7.1 10.6 1.6 4.4
14.3 4.2 15.0 15.0 15.0 15.0 0.2 0.1 0.1 0.1 0.0 0.0 0.1 0.0 0.0 0.0 0.0 0.0 0.0 0.0 0.0 0.0 0.1 0.1 0.2 0.2 0.2 0.2 0.1 0.1 0.1 0.3 3.5 3.2 2.9 0.6 0.3 0.4 7.7 5.3 3.8 1.6 3.1 4.0
14.3 0.9 14.9 15.0 15.0 6.3 0.1 0.4 9.1 15.0 3.0 14.8 1.1 0.0 7.5 0.1 0.0 0.0 0.0 0.0 0.0 0.0 0.0 0.1 0.1 0.1 0.1 0.1 0.1 0.2 0.1 0.2 3.9 2.2 0.4 0.3 0.6 9.0 3.3 1.9 1.2 2.2 15.0 15.0
4.7 0.9 3.9 15.0 15.0 12.9 0.3 13.1 0.1 0.0 0.1 0.5 0.4 0.2 0.1 0.0 0.0 0.0 0.0 0.0 0.0 0.0 0.0 0.0 0.1 0.1 0.1 0.1 3.3 0.7 1.2 0.7 0.5 0.4 0.7 0.8 11.4 1.9 1.3 5.4 15.0 15.0 15.0 15.0
7.5 0.3 0.8 2.9 15.0 1.9 14.1 15.0 0.0 0.0 0.1 12.9 0.7 0.1 0.1 0.7 3.8 1.8 0.1 0.1 0.0 0.0 0.0 0.0 0.1 0.4 0.1 1.0 2.2 1.5 1.8 0.5 0.5 1.2 8.5 3.5 1.8 10.0 15.0 15.0 15.0 15.0 15.0 15.0
2.3 0.2 0.2 0.3 2.6 15.0 15.0 15.0 15.0 0.2 0.1 8.5 0.2 0.1 0.0 8.0 6.0 7.3 4.2 3.2 1.9 0.6 0.1 0.3 3.0 1.2 0.8 1.5 0.6 0.5 0.4 0.7 1.9 7.2 8.9 15.0 15.0 15.0 15.0 15.0 15.0 15.0 15.0 15.0
15.0 0.9 0.2 3.1 0.3 15.0 15.0 15.0 15.0 15.0 0.3 15.0 15.0 4.1 15.0 15.0 11.0 14.7 14.9 8.2 7.1 4.5 5.1 9.0 9.9 9.3 8.4 0.9 0.7 3.1 6.9 15.0 15.0 15.0 15.0 15.0 15.0 15.0 15.0 15.0 15.0 15.0 15.0 15.0
15.0 2.4 0.6 2.9 1.1 15.0 15.0 15.0 15.0 11.6 0.2 15.0 15.0 9.8 9.4 15.0 15.0 15.0 15.0 7.0 15.0 15.0 7.0 7.0 4.1 1.0 2.1 12.6 15.0 4.1 15.0 15.0 15.0 15.0 15.0 15.0 15.0 15.0 15.0 15.0 15.0 15.0 15.0 15.0
15.0 15.0 8.9 8.2 2.4 15.0 15.0 15.0 14.6 10.1 15.0 15.0 15.0 15.0 15.0 15.0 15.0 15.0 15.0 15.0 15.0 15.0 15.0 14.4 4.5 3.3 8.4 14.1 15.0 15.0 15.0 15.0 15.0 15.0 15.0 15.0 15.0 15.0 15.0 15.0 15.0 15.0 15.0 15.0
15.0 15.0 14.4 15.0 15.0 15.0 15.0 15.0 15.0 15.0 15.0 15.0 15.0 15.0 15.0 15.0 15.0 15.0 15.0 15.0 15.0 15.0 15.0 15.0 15.0 14.0 15.0 15.0 15.0 15.0 15.0 15.0 15.0 15.0 15.0 15.0 15.0 15.0 15.0 15.0 15.0 15.0 15.0 15.0
15.0 15.0 15.0 15.0 15.0 15.0 15.0 15.0 15.0 15.0 15.0 15.0 15.0 15.0 15.0 15.0 15.0 15.0 15.0 15.0 15.0 15.0 15.0 15.0 15.0 15.0 15.0 15.0 15.0 15.0 15.0 15.0 15.0 15.0 14.8 15.0 15.0 15.0 15.0 15.0 15.0 15.0 15.0 15.0
15.0 15.0 15.0 15.0 15.0 15.0 15.0 15.0 15.0 15.0 15.0 15.0 15.0 15.0 15.0 15.0 15.0 15.0 15.0 15.0 15.0 15.0 15.0 15.0 15.0 15.0 15.0 15.0 15.0 15.0 15.0 12.8 2.5 14.1 3.8 15.0 15.0 15.0 15.0 15.0 15.0 15.0 15.0 15.0
15.0 15.0 15.0 15.0 15.0 15.0 15.0 15.0 15.0 15.0 15.0 15.0 15.0 15.0 15.0 15.0 15.0 15.0 15.0 15.0 15.0 15.0 15.0 15.0 15.0 15.0 15.0 15.0 15.0 15.0 15.0 11.7 13.3 1.9 15.0 15.0 5.0 2.9 15.0 15.0 15.0 15.0 15.0 15.0